Location: Brede
(50.9167°N, 0.6000°E)
Time: 17:08:22
(UTC+00:00)

Okean 2 Rocket - Pass Details

Date: 08 August 2020
Orbit: 616 x 642 km, 82.5° (Epoch: 22 September)

Event Time Altitude Azimuth Distance (km) Brightness Sun altitude
Exits shadow 01:02:16 63° 175° (S) 711 3.0 -21.8°
Maximum altitude 01:02:58 83° 100° (E) 645 3.0 -21.8°
Drops below altitude 10° 01:07:30 10° 12° (NNE) 2,037 6.9 -21.6°
Sets 01:09:46 0° 11° (NNE) 2,954 8.1 -21.5°
